Regional Weather Roundup
Issued by NWS

Home | Current Version | Previous Version | Text Only | Print | Product List | Glossary On
Versions: 1 2 3 4 5 6 7 8 9 10 11 12 13 14 15 16 17 18 19 20 21 22 23 24 25 26 27 28 29 30 31 32 33 34 35 36 37 38 39 40 41 42 43 44 45 46 47 48 49 50
000
ASUS45 KSLC 051210
RWRUT

UTAH REGIONAL WEATHER ROUNDUP
NATIONAL WEATHER SERVICE SALT LAKE CITY UT
600 AM MDT WED AUG 05 2015

UTZ001>011-023>025-051300-

NORTHERN UTAH

CITY           SKY/WX    TMP DP  RH WIND       PRES   REMARKS
BRIGHAM CITY   MOCLDY    65  50  57 N5        29.97S
HILL AFB       CLOUDY    70  44  38 SE10      30.00R
LOGAN          CLEAR     60  53  77 W5        30.00S
OGDEN          MOCLDY    70  45  40 S10       29.97S
PROVO AIRPORT  PTCLDY    66  46  48 SE10      30.03S
SALT LAKE CITY MOCLDY    78  41  26 S14       29.95S
VERNAL         PTCLDY    60  47  61 W3        30.12R
WENDOVER       PTCLDY    70  43  37 SE5       29.97S
HEBER CITY     MOCLDY    55  48  76 CALM      30.12S
WEST JORDAN    CLEAR     75  43  31 S14       30.00F

$$

UTZ012>022-026-027-051300-

SOUTHERN/CENTRAL UTAH

CITY           SKY/WX    TMP DP  RH WIND       PRES   REMARKS
BLANDING       CLEAR     62  44  53 N6        30.27S
CEDAR CITY     CLEAR     59  27  29 E3        30.14S
DELTA          PTCLDY    70  28  21 S10       30.04S
HANKSVILLE     CLEAR     61  52  72 CALM      30.08R
MILFORD        PTCLDY    62  25  24 S7        30.08S
MOAB/CYNLANDS  CLEAR     67  48  50 SE3       30.05S
PRICE          CLEAR     61  46  57 N6        30.15S
ST GEORGE      PTSUNNY   77  34  20 CALM      29.97S
KANAB          CLEAR     54  34  47 NE3       30.19S

$$

REGIONAL REPORTS     COLORADO/ARIZONA

CITY           SKY/WX    TMP DP  RH WIND       PRES   REMARKS
CRAIG, CO      NOT AVBL
GRAND JUNCTION CLEAR     64  43  46 SE13      30.12R
RIFLE          CLEAR     55  46  71 S3        30.21S
MONTROSE       CLEAR     58  42  55 SE7       30.23S
CORTEZ         CLEAR     49  45  86 E3        30.23R
PAGE, AZ       CLEAR     72  36  26 CALM      30.07S
GRAND CANYON   CLEAR     43  32  65 CALM      30.29F
KINGMAN        CLEAR     79  29  16 S9        30.02R
FLAGSTAFF      CLEAR     50  32  50 CALM      30.33S HAZE

$$

REGIONAL REPORTS    NEVADA/IDAHO/WYOMING

CITY           SKY/WX    TMP DP  RH WIND       PRES   REMARKS
LAS VEGAS, NV  PTCLDY    89  40  17 S8        29.85R
ELY            PTCLDY    60  30  32 S14       30.12S
ELKO           MOCLDY    61  40  45 W3        30.03R
POCATELLO, ID  MOCLDY    62  49  62 NE8       30.03F
BURLEY         MOCLDY    59  52  77 S6        30.00S
EVANSTON, WY   MOCLDY    58  39  49 E5        30.20F
ROCK SPRINGS   MOCLDY    56  42  59 SE6       30.20S
KEMMERER       CLOUDY    54  34  47 N9        30.22S

$$


USA.gov is the U.S. government's official web portal to all federal, state and local government web resources and services.